CST,Max TemperatureF,Mean TemperatureF,Min TemperatureF,Max Dew PointF,MeanDew PointF,Min DewpointF,Max Humidity, Mean Humidity, Min Humidity, Max Sea Level PressureIn, Mean Sea Level PressureIn, Min Sea Level PressureIn, Max VisibilityMiles, Mean VisibilityMiles, Min VisibilityMiles, Max Wind SpeedMPH, Mean Wind SpeedMPH, Max Gust SpeedMPH,PrecipitationIn, CloudCover, Events, WindDirDegrees
2013-2-1,19,6,-7,14,-5,-15,79,69,61,30.33,30.21,29.99,10,10,5,17,12,20,0.00,4,Snow,223
2013-2-2,29,18,9,25,11,3,91,78,63,30.16,30.06,29.93,10,9,3,22,12,26,0.00,5,Snow,280
2013-2-3,29,20,12,25,14,6,83,76,68,30.13,30.01,29.80,10,9,2,32,18,37,0.00,5,Snow,270
2013-2-4,24,20,15,18,14,11,86,78,67,30.01,29.91,29.77,10,10,4,16,8,21,0.00,5,Snow,15
2013-2-5,36,28,19,30,23,16,90,83,75,30.09,29.88,29.75,10,7,4,21,12,28,0.00,5,,276
2013-2-6,35,25,15,32,24,13,90,85,79,30.12,30.02,29.92,7,6,4,16,5,18,0.00,4,Rain,135
2013-2-7,34,30,26,32,28,21,96,91,81,30.19,30.00,29.89,7,4,1,22,9,26,0.00,8,Rain-Snow,349
2013-2-8,28,26,24,23,21,20,86,81,74,30.35,30.28,30.18,10,8,7,16,10,22,0.00,8,,80
2013-2-9,32,29,26,28,26,23,92,88,86,30.25,30.08,29.86,10,6,4,23,16,30,0.00,8,,143
2013-2-10,40,35,29,39,32,26,97,92,78,29.86,29.45,29.26,10,5,0,32,16,41,0.11,8,Fog-Rain-Snow,161
2013-2-11,29,26,22,27,21,16,90,79,74,30.09,29.88,29.49,10,9,2,37,28,44,0.00,8,Snow,282
2013-2-12,40,30,21,30,23,17,90,78,60,30.12,29.99,29.84,10,10,10,17,10,20,0.00,2,,232
2013-2-13,44,34,24,33,29,22,91,81,64,29.85,29.74,29.64,10,10,10,17,9,22,0.00,2,,250
2013-2-14,35,28,21,31,26,14,94,83,66,30.16,29.89,29.65,10,9,1,32,17,38,0.00,6,Snow,303
2013-2-15,24,18,13,14,11,7,81,74,63,30.29,30.26,30.17,10,10,10,20,13,23,0.00,1,,311
2013-2-16,28,18,8,19,13,5,87,79,64,30.28,30.16,30.09,10,8,1,10,7,,0.00,4,Snow,310
2013-2-17,37,26,16,26,20,12,87,74,60,30.09,29.92,29.65,10,9,4,22,12,30,0.00,0,,134
2013-2-18,38,24,10,32,20,2,88,78,68,29.86,29.67,29.55,10,9,0,36,18,41,0.00,4,Snow,289
2013-2-19,17,8,0,4,-1,-6,76,67,55,30.35,30.12,29.88,10,10,5,33,25,41,0.00,2,,306
2013-2-20,24,12,0,11,1,-8,77,65,47,30.43,30.36,30.31,10,10,10,13,8,,0.00,0,,27
2013-2-21,25,19,13,19,13,8,89,76,61,30.33,30.15,29.88,10,8,1,23,12,30,0.00,4,Snow,71
2013-2-22,29,20,10,22,18,8,91,84,75,29.94,29.86,29.77,10,5,0,17,11,22,0.01,7,Snow,324
2013-2-23,26,16,7,17,11,4,90,82,68,29.94,29.92,29.89,10,6,1,13,8,,0.00,1,Snow,232
2013-2-24,32,18,5,23,14,2,91,82,67,30.08,30.02,29.94,7,4,0,8,2,,0.00,3,Snow,106
2013-2-25,37,30,23,26,24,20,89,80,61,30.09,30.04,29.93,10,6,2,10,2,,0.00,4,,57
2013-2-26,32,30,27,28,25,22,89,83,76,29.93,29.80,29.74,10,6,0,20,12,26,0.00,5,Snow,11
2013-2-27,31,27,23,27,24,19,92,85,80,29.95,29.83,29.76,10,7,2,25,15,31,0.00,8,Snow,328
2013-2-28,30,26,22,24,21,18,87,81,74,30.16,30.09,29.95,10,10,10,18,14,18,0.00,8,Snow,329